Location: Borovka
(49.7741°N, 14.5280°E)
Time: 23:36:48
(UTC+00:00)

UNISAT 6 - Visible Passes

Search period start: 13 March 2026 00:00
Search period end: 23 March 2026 00:00
Orbit: 573 x 637 km, 97.8° (Epoch: 13 March)

Date Brightness Start Highest point End Pass type
(mag) Time Alt. Az. Time Alt. Az. Time Alt. Az.
13 Mar ? 01:09:47 12° NNE 01:09:47 12° NNE 01:10:07 10° N visible
14 Mar ? 01:22:23 14° N 01:22:23 14° N 01:23:02 10° N visible
15 Mar ? 01:35:00 16° N 01:35:00 16° N 01:35:53 10° N visible
16 Mar ? 01:47:35 17° N 01:47:35 17° N 01:48:41 10° N visible
17 Mar ? 02:00:10 19° N 02:00:10 19° N 02:01:26 10° N visible
18 Mar ? 00:35:53 12° NE 00:35:53 12° NE 00:36:36 10° NNE visible
18 Mar ? 02:12:44 20° NNW 02:12:44 20° NNW 02:14:07 10° NNW visible
19 Mar ? 00:48:27 15° NE 00:48:27 15° NE 00:49:49 10° NNE visible
19 Mar ? 02:25:18 21° NNW 02:25:18 21° NNW 02:26:45 10° NNW visible
20 Mar ? 01:01:01 18° NE 01:01:01 18° NE 01:02:52 10° NNE visible
20 Mar ? 02:37:51 20° NNW 02:37:51 20° NNW 02:39:20 10° NNW visible
21 Mar ? 01:13:33 22° NE 01:13:33 22° NE 01:15:46 10° N visible
21 Mar ? 02:50:23 19° NW 02:50:23 19° NW 02:51:50 10° NNW visible
22 Mar ? 01:26:05 27° NNE 01:26:05 27° NNE 01:28:37 10° N visible
22 Mar ? 03:02:55 17° NW 03:02:55 17° NW 03:04:17 10° NW visible
